Location: Armagh
(54.3500°N, 6.6670°W)
Time: 05:05:19
(UTC+00:00)

ISS - Pass Details

Date: 13 December 2017
Orbit: 401 x 406 km, 51.6° (Epoch: 17 January)

Event Time Altitude Azimuth Distance (km) Brightness Sun altitude
Rises 18:30:33 0° 276° (W) 2,341 1.4 -20.0°
Reaches altitude 10° 18:33:09 10° 255° (WSW) 1,475 0.2 -20.4°
Maximum altitude 18:35:20 17° 213° (SSW) 1,139 -1.0 -20.7°
Enters shadow 18:37:29 10° 172° (S) 1,465 -1.0 -21.0°
